Weather History for Gillette, WY

Change the Weather History Date:

Sunday, April 28, 2013

  Actual Average Record
Temperature  
Mean Temperature 50 °F 47 °F  
Max Temperature 61 °F 60 °F 81 °F (1987)
Min Temperature 39 °F 34 °F 12 °F (1984)
Degree Days  
Heating Degree Days 15 18  
Month to date heating degree days 831 633  
Since 1 July heating degree days 6918 6980  
Cooling Degree Days 0 0  
Month to date cooling degree days 0 0  
Year to date cooling degree days 0 0  
Growing Degree Days 1 (Base 50)    
Moisture  
Dew Point 35 °F    
Average Humidity 66    
Maximum Humidity 92    
Minimum Humidity 39    
Precipitation  
Precipitation 0.01 in 0.08 in 0.73 in (1978)
Month to date precipitation 1.55 1.32  
Year to date precipitation 2.96 3.06  
Sea Level Pressure  
Sea Level Pressure 29.87 in    
Wind  
Wind Speed 10 mph (NNW)    
Max Wind Speed 22 mph    
Max Gust Speed 28 mph    
Visibility 10 miles    
Events Rain    
T = Trace of Precipitation, MM = Missing Value Source: NWS Daily Summary

Daily Weather History Graph

Daily Weather History Graph

Search for Another Location

Airport:

Trip Planner

Search our weather history database for the weather conditions in past years. The results will help you decide how hot, cold, wet, or windy it might be!

Date:

Astronomy

Apr. 28, 2013 Rise Set
Actual Time 5:57 AM MDT 8:02 PM MDT
Civil Twilight 5:25 AM MDT 8:34 PM MDT
Nautical Twilight 4:46 AM MDT 9:13 PM MDT
Astronomical Twilight 4:03 AM MDT 9:56 PM MDT
Moon 11:39 PM MDT (4/28) 8:12 AM MDT (4/28)
Length of Visible Light 15h 09m
Length of Day
14h 05m
Waning Gibbous, 88% of the Moon is Illuminated
Apr 28
Waning Gibbous
May 2
Last Quarter
May 9
New
May 17
First Quarter
May 24
Full

Hourly Weather History & Observations

Time (MDT) Temp. Windchill Dew Point Humidity Pressure Visibility Wind Dir Wind Speed Gust Speed Precip Events Conditions
12:53 AM 53.1 °F - 30.0 °F 41% 29.77 in 10.0 mi West 8.1 mph - N/A   Clear
1:53 AM 51.1 °F - 30.9 °F 46% 29.76 in 10.0 mi WSW 6.9 mph - N/A   Clear
2:53 AM 52.0 °F - 30.9 °F 45% 29.73 in 10.0 mi SW 10.4 mph - N/A   Clear
3:53 AM 52.0 °F - 30.0 °F 43% 29.75 in 10.0 mi Calm Calm - N/A   Clear
4:53 AM 52.0 °F - 30.0 °F 43% 29.78 in 10.0 mi NNW 3.5 mph - N/A   Partly Cloudy
5:53 AM 46.9 °F - 33.1 °F 59% 29.82 in 10.0 mi NNW 4.6 mph - N/A   Clear
6:53 AM 48.2 °F - 33.8 °F 58% 29.92 in 10.0 mi NNW 4.6 mph - N/A   Scattered Clouds
7:53 AM 53.1 °F - 34.0 °F 48% 29.88 in 10.0 mi NE 4.6 mph - N/A   Clear
8:53 AM 55.9 °F - 34.0 °F 44% 29.90 in 10.0 mi NNE 18.4 mph - N/A   Clear
9:53 AM 57.0 °F - 35.1 °F 44% 29.90 in 10.0 mi NE 10.4 mph - N/A   Clear
10:53 AM 57.0 °F - 35.1 °F 44% 29.92 in 10.0 mi North 18.4 mph 21.9 mph N/A   Mostly Cloudy
11:53 AM 59.0 °F - 36.0 °F 42% 29.90 in 10.0 mi North 16.1 mph 24.2 mph N/A   Mostly Cloudy
12:53 PM 61.0 °F - 36.0 °F 39% 29.89 in 10.0 mi North 18.4 mph 25.3 mph N/A   Mostly Cloudy
1:53 PM 57.0 °F - 35.1 °F 44% 29.91 in 10.0 mi NNW 16.1 mph - N/A   Overcast
2:53 PM 55.4 °F - 35.6 °F 47% 29.98 in 10.0 mi NNW 13.8 mph - N/A   Overcast
3:53 PM 54.0 °F - 37.0 °F 53% 29.91 in 10.0 mi NNW 17.3 mph - N/A   Overcast
4:53 PM 50.0 °F - 39.0 °F 66% 29.93 in 10.0 mi North 17.3 mph - N/A   Overcast
5:53 PM 50.0 °F - 37.4 °F 62% 29.98 in 10.0 mi North 12.7 mph - N/A   Overcast
6:53 PM 46.0 °F 42.5 °F 39.9 °F 79% 29.93 in 10.0 mi ENE 6.9 mph - 0.00 in Rain Light Rain
7:53 PM 44.1 °F 40.8 °F 41.0 °F 89% 29.90 in 10.0 mi SE 5.8 mph - 0.01 in   Scattered Clouds
8:53 PM 42.1 °F 36.1 °F 39.0 °F 89% 29.90 in 10.0 mi South 10.4 mph - N/A   Clear
9:53 PM 41.0 °F 34.3 °F 37.9 °F 89% 29.88 in 10.0 mi South 11.5 mph - N/A   Clear
10:53 PM 41.0 °F - 37.0 °F 86% 29.88 in 10.0 mi Calm Calm - N/A   Clear
11:53 PM 39.9 °F 34.5 °F 37.0 °F 89% 29.85 in 10.0 mi South 8.1 mph - N/A   Clear